Location: Mount Cross
(36.6390°N, 79.4878°W)
Time: 18:28:33
(UTC+00:00)

Courier 1B Rocket - Pass Details

Date: 27 March 2023
Orbit: 920 x 1202 km, 28.2° (Epoch: 05 June)

Event Time Altitude Azimuth Distance (km) Brightness Sun altitude
Rises 00:01:01 0° 227° (SW) 3,940 8.8 -6.0°
Reaches altitude 10° 00:04:20 10° 216° (SW) 2,936 7.9 -6.7°
Maximum altitude 00:10:06 26° 162° (SSE) 1,908 6.3 -7.8°
Enters shadow 00:15:29 10° 108° (ESE) 2,751 6.7 -8.9°
Drops below altitude 10° 00:15:34 10° 108° (ESE) 2,769 - -8.9°
Sets 00:18:35 0° 96° (E) 3,676 - -9.5°
